Retour au catalogue

CZ-4C DEB

ActifSSO
NORAD 38293·DEBRIS·🇨🇳 China

Lancé Nov 4, 2010 depuis Taiyuan Satellite Launch Center

Loading…

Prochains Passages (prochaines 24 heures)

TLE

FraisSource: Space-Track

Époque: Sep 14, 2026, 11:08 UTC

1 38293U 10059C   26257.46403539  .00000045  00000-0  34646-4 0  9992
2 38293  98.5964 336.4704 0011604  14.6132 345.5383 14.29421431818890

Suivez CZ-4C DEB en temps réel avec AllMySat

Download on the App Store